Content
SEND FEEDBACK

Daily
Averages
Monthly
Summary
United States of America

YELLOWSTONE NATIONAL PARK, WYOMING


Home > North America > United States > Wyoming
Elevation: 7938 feet     Latitude: 44 34N     Longitude: 110 24W

WEATHER
 
SELECT A DAY
Number of Records: 295,416;   Date Range: 1/1/95 - 8/28/14
 
SHARE

PRINT THIS DATA

[ ← Previous Day ]
WEATHER ALMANAC - APRIL 10, 2014
[ Next Day → ]
[ °C ]   °F
Weather ElementAverageHighLow
Temperature31.3 °F44.1 °F (1:56 pm)21 °F (5:56 am)
Dewpoint20.7 °F26.1 °F (1:56 am)16 °F (2:56 pm)
Humidity69.9 %96 % (2:56 am)32 % (3:56 pm)
Barometer30.09 in30.20 in (9:56 pm)29.98 in (1:56 am)
Wind Speed2.8 mph12.7 mph (1:56 pm)
Wind Gust28.8 mph (1:56 pm)
Weather ElementAverage
Wind DirectionENE (71 °)

Weather ElementTotal
Precipitation---
Heating Degree Days32.5 (Base 65)
Averaged from 21 records on April 10, 2014
WEATHER CONDITIONS BREAKOUT
WIND DIRECTION BREAKOUT
WEATHER BY HOUR - APRIL 10, 2014
[ °C ]   °F
Local TimeTemperatureDewpointHumidityBarometerVisibilityWind DirectionWind SpeedGust SpeedPrecipitationEventsConditions
1:56 AM28.0 °F26.1 °F92 %29.98 inCalm
2:56 AM25.0 °F24.1 °F96 %30.01 inCalm
3:56 AM24.1 °F21.9 °F91 %30.05 inCalm
4:56 AM21.9 °F19.9 °F92 %30.09 inCalm
5:56 AM21.0 °F19.0 °F92 %30.08 inCalm
6:56 AM21.0 °F19.0 °F92 %30.09 inCalm
7:56 AM21.9 °F19.9 °F92 %30.09 inCalm
8:56 AM23.0 °F21.9 °F96 %30.12 inCalm
9:56 AM28.9 °F24.1 °F82 %30.09 inSE (130°)3.5 mph
10:56 AM39.0 °F25.0 °F57 %30.05 inSSW (210°)3.5 mph
1:56 PM44.1 °F17.1 °F34 %30.01 inWest (270°)12.7 mph28.8 mph
2:56 PM43.0 °F16.0 °F34 %30.04 inVariable6.9 mph
3:56 PM44.1 °F16.0 °F32 %30.06 inWest (270°)12.7 mph23.0 mph
4:56 PM43.0 °F19.0 °F38 %30.08 inVariable4.6 mph18.4 mph
5:56 PM43.0 °F19.9 °F40 %30.09 inNorth
6:56 PM41.0 °F21.0 °F45 %30.12 inVariable5.8 mph16.1 mph
7:56 PM37.9 °F19.9 °F48 %30.13 inCalm
8:56 PM30.0 °F23.0 °F75 %30.19 inCalm
9:56 PM28.0 °F21.9 °F78 %30.20 inCalm
10:56 PM26.1 °F21.0 °F81 %30.19 inWNW (300°)3.5 mph
11:56 PM24.1 °F19.0 °F81 %30.17 inNW (310°)3.5 mph
Hourly data recorded from KP60, located miles away from Yellowstone National Park, Wyoming







STORIES FROM OUR PARTNERS